Location: Medlow Airstrip Trail, Medlow Bath NSW 2780, Australia
(33.6682°S, 150.3233°E)
Time: 08:15:07
(UTC+11:00)

Explorer 11/Cluster Stage 4 - Pass Details

Date: 02 October 2019
Orbit: 467 x 1259 km, 28.8° (Epoch: 15 October)

Event Time Altitude Azimuth Distance (km) Brightness Sun altitude
Rises 06:00:52 0° 293° (WNW) 2,506 8.6 4.4°
Reaches altitude 10° 06:03:09 10° 302° (WNW) 1,620 7.7 4.9°
Maximum altitude 06:06:28 34° 8° (N) 800 6.8 5.6°
Drops below altitude 10° 06:09:59 10° 75° (ENE) 1,717 10.3 6.3°
Sets 06:12:28 0° 84° (E) 2,685 11.9 6.9°
